Tracking 17938 objects as of 23-February-2017
HD Live streaming from Space Station
objects crossing your sky now

COSMOS 2251 DEB

Track COSMOS 2251 DEB now!
10-day predictions


NORAD ID: 35451
Int'l Code: 1993-036AKV
Perigee: 567.0 km
Apogee: 720.3 km
Inclination: 73.9 °
Period: 97.4 minutes
Semi major axis: 7014 km
RCS: 0.0039 m2 (small)
Launch date: June 16, 1993
Source: Commonwealth of Independent States (former USSR) (CIS)
Launch site: PLESETSK MISSILE AND SPACE COMPLEX (PKMTR)

Note: This is SATELLITE DEBRIS
Your satellite tracking list
Your tracking list is empty





NASA's NSSDC Master Catalog

Two Line Element Set (TLE):
1 35451U 93036AKV 17053.42717970  .00001232  00000-0  16065-3 0  9991
2 35451  73.9454  60.9210 0109284 349.5463  10.3437 14.77722396421719
Source of the keplerian elements: AFSPC